Cloud_Cover
5 5 5 5 5 3 5 7 68 66 7 5 5 5 5 5 5 5 5 5 5 5 5 3 0 0 0 88 100 100 100 84 95 11 56 18 5 5
31 5 13 28 5 5 5 48 76 77 60 5 5 5 8 5 5 5 5 5 5 5 5 5 0 0 0 24 100 100 100 100 100 79 100 74 12 5
82 71 5 5 22 71 100 66 19 22 69 5 49 63 65 94 62 6 20 5 5 5 2 2 1 0 0 0 26 100 100 100 100 100 100 100 77 82
81 78 5 42 69 89 100 100 100 100 100 99 91 100 100 100 100 100 87 90 52 5 0 0 0 0 0 1 1 97 100 100 100 100 100 96 100 100
70 5 5 71 84 95 100 100 100 100 100 100 100 100 100 100 100 100 100 100 94 5 0 4 0 0 0 2 4 43 100 100 100 100 100 100 100 100
5 5 30 69 74 97 100 100 100 100 100 100 100 100 100 100 100 100 100 100 100 99 5 0 5 0 4 4 5 5 99 96 84 100 100 100 100 100
5 3 5 12 58 91 100 100 100 100 100 100 100 100 100 100 100 100 100 100 97 100 80 5 5 5 75 11 5 17 100 100 99 100 100 100 100 100
0 5 5 5 70 96 100 93 92 100 100 100 100 100 100 100 100 100 100 100 100 100 100 99 29 5 25 94 83 97 100 100 100 100 100 100 100 100
5 7 59 99 100 100 100 93 100 99 100 100 100 100 100 100 100 100 100 100 100 100 100 100 94 18 5 9 100 100 100 100 100 100 100 100 100 100
16 85 100 100 100 100 100 100 100 100 100 100 100 100 100 100 100 100 100 100 100 99 100 100 99 100 61 8 11 100 100 100 100 100 100 100 100 100
98 100 100 100 100 100 100 100 100 100 100 100 92 92 100 100 100 100 100 100 100 100 100 100 96 100 99 30 5 10 100 100 100 100 100 100 100 100
100 100 100 100 100 100 100 100 100 100 100 100 100 96 100 100 100 100 100 100 100 100 100 97 100 98 97 66 5 5 5 53 100 100 100 100 100 100
100 78 43 100 100 100 99 100 100 100 100 100 100 100 100 100 100 100 100 100 100 98 100 99 100 100 100 99 95 5 5 5 5 69 100 100 100 100
100 44 42 83 81 42 81 100 98 100 100 100 100 100 100 100 100 100 100 100 100 97 100 100 100 100 100 100 100 89 44 33 28 90 24 67 100 100
88 6 5 5 5 5 18 95 88 100 100 100 100 100 100 100 100 100 100 100 100 100 100 100 100 100 100 100 100 99 100 94 100 59 15 5 36 99
7 3 4 5 5 16 5 54 83 100 100 100 100 100 100 100 100 100 100 100 100 100 100 100 100 100 100 100 100 100 100 100 100 96 100 97 96 88
4 5 5 5 1 4 5 5 90 100 100 100 100 100 100 100 100 100 100 100 100 100 100 100 100 100 100 100 100 100 100 100 100 96 73 94 100 87
5 5 5 5 5 2 5 5 31 96 100 100 100 100 100 100 100 100 100 100 100 100 100 100 100 100 100 100 99 100 100 100 100 99 100 100 99 95
21 9 78 20 5 4 4 4 5 7 97 100 100 100 100 100 100 100 100 100 100 100 100 100 100 100 100 100 100 100 100 100 100 100 100 99 99 100
14 5 52 88 32 5 2 4 5 5 23 99 100 100 100 100 100 100 100 100 99 100 100 96 94 98 100 100 100 99 97 86 87 99 100 99 99 74
100 71 70 43 64 5 6 5 41 5 5 49 100 100 100 100 100 100 100 100 100 95 81 100 98 98 99 87 90 99 100 99 99 91 71 81 90 98
96 98 66 55 75 74 59 48 7 7 5 5 56 100 98 97 100 100 100 100 100 100 100 100 96 100 99 100 100 76 97 97 93 92 31 28 95 100
99 90 98 82 82 86 29 5 6 25 5 5 5 44 92 91 100 100 100 100 100 100 100 100 100 100 99 99 93 100 100 85 87 99 99 12 7 10